www.pogodaiklimat.ru

Погода и климат >> Архив погоды >> Узбекистан >> Туябугуз


ПОГОДА в Туябугузе

  • Прогноз погоды в Туябугузе
  • Монитор погоды в Туябугузе

АРХИВ ПОГОДЫ в Туябугузе

Время (UTC), дата Ветер
(напр.,м/с)
 
Видим.   Явления Облачность Т
(С)
Тd
(С)
f
(%)
Тe
(С)
Тes
(С)
Комфортность P
(гПа)
Po
(гПа)
Тmin
(С)
Tmax
(С)
R
(мм)
R24
(мм)
S
(см)
00 14.06 ЮВ 2 20 км ясно +22.6 +8.5 40 +24 +24 комфорт 1004.6 959.1
03 14.06 Ю 2 20 км ясно +25.2 +11.7 43 +27 +33 жарко 1005.0 960.0
06 14.06 З 2 20 км 1/0
[Ci fib]
+30.4 +10.5 29 +30 +48 жарко 1004.6 960.3 +18.8
09 14.06 З 2 20 км 1/1 1000 м
[Cu hum]
+33.2 +10.4 25 +33 +49 жарко 1003.7 959.8
12 14.06 З 1 20 км 1/0
[Ac trans]
+33.9 +12.4 27 +34 +40 очень
жарко
1002.8 959.1
15 14.06 СВ 2 20 км 5/0
[Ac trans Ci fib]
+28.5 +13.6 40 +30 +30 жарко 1004.4 959.8 +34.5
18 14.06 ЮВ 2 20 км 4/0
[Ac trans Ci fib]
+24.8 +11.1 42 +26 +26 жарко 1004.7 959.5 +34.5
21 14.06 ЮВ 2 20 км 8/0
[Ac trans Ci fib]
+23.5 +9.8 42 +25 +25 комфорт 1004.0 958.7
00 15.06 З 2 20 км 10/10 600 м
[Sc]
+24.8 +9.4 38 +26 +26 жарко 1004.6 959.4
03 15.06 З 2 20 км 9/8 600 м
[Sc Ac trans]
+23.7 +13.2 52 +26 +27 жарко 1005.7 960.3
06 15.06 Ю 2 20 км 9/3 600 м
[Sc Ac trans]
+25.8 +13.8 47 +28 +34 жарко 1006.9 961.9 +23.5
09 15.06 Ю 1 20 км 6/1 1000 м
[Cu hum Ac und Ci fib]
+30.1 +13.8 37 +32 +45 жарко 1006.1 961.7
12 15.06 Ю 3 20 км 3/0
[Ac trans]
+29.9 +11.2 31 +30 +34 жарко 1005.6 961.1
15 15.06 Ю 1 20 км 8/0
[Ac trans Ci fib]
+25.6 +15.2 53 +29 +29 душно 1005.5 960.6 +32.1
18 15.06 Ю 1 20 км 4/0
[Ci fib]
+24.2 +13.4 51 +26 +26 жарко 1005.6 960.4 +32.1
00 16.06 Ю 1 20 км ясно +21.9 +10.9 50 +24 +24 комфорт 1006.3 960.6
03 16.06 З 1 20 км ясно +24.2 +12.8 49 +26 +34 жарко 1007.6 962.3
06 16.06 С 2 20 км ясно +29.6 +11.3 32 +30 +48 жарко 1008.4 963.8 +21.9
09 16.06 ЮЗ 1 20 км ясно +32.2 +9.8 25 +32 +52 опасность
солнечного
удара
1006.8 962.7
12 16.06 ЮЗ 2 20 км ясно +32.7 +8.8 23 +32 +37 жарко 1006.7 962.6
15 16.06 Ю 1 20 км ясно +25.8 +15.4 53 +29 +29 душно 1007.1 962.1 +33.6
18 16.06 штиль 0 20 км ясно +22.8 +16.4 67 +27 +27 душно 1007.7 962.3 +33.6
21 16.06 Ю 3 20 км ясно +20.4 +12.0 59 +23 +23 комфорт 1008.1 962.2
00 17.06 СВ 2 20 км ясно +17.2 +11.5 69 +18 +18 1008.8 962.4
03 17.06 С 3 20 км ясно +19.8 +10.4 55 +21 +27 комфорт 1009.6 963.4
09 17.06 З 2 20 км ясно +30.8 +11.2 30 +31 +49 жарко 1006.6 962.2
12 17.06 С 2 20 км ясно +31.6 +11.4 29 +32 +37 жарко 1004.8 960.7
15 17.06 З 2 20 км ясно +24.8 +16.2 59 +28 +28 жарко 1006.8 961.7 +32.5
18 17.06 В 1 20 км ясно +20.6 +11.0 54 +24 +24 комфорт 1006.5 960.3 +32.5
21 17.06 С 1 20 км ясно +19.2 +10.3 56 +21 +21 комфорт 1006.7 960.7
00 18.06 В 1 20 км ясно +18.2 +8.4 53 +19 +19 1006.3 960.0
03 18.06 Ю 1 20 км ясно +24.2 +10.0 41 +25 +33 комфорт 1006.2 961.0
06 18.06 СЗ 2 20 км ясно +30.5 +10.6 29 +30 +49 жарко 1005.9 961.5 +18.2
09 18.06 З 2 20 км 3/0
[]
+33.2 +11.2 26 +33 +48 жарко 1004.8 960.9
12 18.06 СЗ 2 20 км 3/0
[]
+33.8 +11.4 26 +34 +38 очень
жарко
1003.7 959.8
15 18.06 С 2 20 км ясно +28.9 +15.2 43 +31 +31 жарко 1004.6 960.2 +34.5
18 18.06 С 2 20 км ясно +21.6 +17.0 75 +26 +26 душно 1007.0 961.4 +34.5
21 18.06 СВ 3 20 км 1/0
[Ci fib]
+20.8 +11.7 56 +23 +23 комфорт 1007.1 961.2
00 19.06 СВ 1 20 км 4/0
[Ci fib]
+18.5 +9.9 57 +20 +20 1007.1 961.0
03 19.06 В 2 20 км 9/0
[Ac trans Ci fib]
+22.6 +10.9 48 +25 +29 комфорт 1007.3 961.7
06 19.06 штиль 0 20 км 9/0
[Ac trans Ci fib]
+30.6 +10.3 28 +30 +45 жарко 1004.2 959.9 +18.5
12 19.06 С 1 20 км 8/4 600 м
[Sc Ac trans]
+28.7 +19.7 58 +35 +37 очень
душно
1003.9 959.5
15 19.06 Ю 1 20 км 4/3 600 м
[Sc Ac trans]
+27.3 +16.1 50 +31 +31 душно 1004.4 959.7 +32.9
18 19.06 В 1 20 км 1/0
[Ac trans]
+21.3 +15.6 70 +25 +25 комфорт 1005.5 959.8 +32.9
21 19.06 СВ 1 20 км 3/0
[Ci fib]
+18.2 +11.0 63 +20 +20 1006.0 959.9
03 20.06 ЮВ 2 20 км 4/0
[Ac trans Ci fib]
+24.8 +14.6 53 +27 +33 жарко 1005.6 960.6

 

Местоположение метеостанции Туябугуз (Ташкентская область, Узбекистан): широта 40.95 долгота 69.37 высота над уровнем моря 500 м.

В архиве по умолчанию представлена погода в Туябугузе за последнюю неделю. Архивные данные за месяц целиком и за предыдущие месяцы, начиная с января 2011 года, Вы можете получить, выбрав интересующий диапазон дат из раскрывающегося списка и нажав кнопку "Ввод!".


*Определитесь, кто Вы:
робот инопланетянин человек

Внимание! Время в таблицах - всемирное. Для получения местного времени необходимо прибавить поправку, которая равна 5 ч.

Смотрите также архив погоды в соседних городах и на ближайших метеорологических станциях:

Погода в Каунчи (Ташкентская область, Узбекистан) (34 км)
Погода в Ташкенте (Ташкентская область, Узбекистан) (37 км)
Погода в Сырдарье (Сырдарьинская область, Узбекистан) (60 км)
Погода в Дуканте (Ташкентская область, Узбекистан) (63 км)
Погода в Ангрене (Ташкентская область, Узбекистан) (68 км)
Погода в Келесе (Южно-Казахстанская область, Казахстан) (72 км)
Погода в Кайракумском (Таджикистан) (81 км)
Погода в Бекабаде (Ташкентская область, Узбекистан) (84 км)
Погода в Чимгане (Ташкентская область, Узбекистан) (86 км)
Погода в Худжанде (Таджикистан) (87 км)

Пояснения к столбцам:

Ветер - указаны скорость ветра в м/с - средняя за 10 мин, порывы в срок и между сроками (в фигурных скобках) и направление, откуда дует ветер: С - северный, СВ - северо-восточный, В - восточный, ЮВ - юго-восточный, Ю - южный, ЮЗ - юго-западный, З - западный, СЗ - северо-западный.
Видимость - горизонтальная дальность видимости в метрах или километрах. При видимости от 1 до 10 км при отсутствии осадков обычно наблюдается дымка, при ухудшении видимости до 1 км и менее - туман. В сухую погоду видимость может ухудшаться дымом, пылью или мглою.
Явления - указаны атмосферные явления, наблюдавшиеся в срок или в последний час перед сроком; фигурными скобками обозначены явления, наблюдавшиеся между сроками (за 1-3 часа до срока); квадратными скобками обозначены град или гололедные отложения с указанием их диаметра в мм.
Облачность - указаны через наклонную черту общая и нижняя облачность в баллах и высота нижней границы облаков в метрах; квадратными скобками обозначены формы облаков: Ci - перистые, Cs - перисто-слоистые, Cc - перисто-кучевые, Ac - высококучевые, As - высокослоистые, Sc - слоисто-кучевые, Ns - слоисто-дождевые, Cu - кучевые, Cb - кучево-дождевые. Подробнее классификацию облаков см. в Атласе облаков (PDF).
T - Температура воздуха - температура, измеренная на высоте 2 м над землей.
Td - Температура точки росы - температура, при понижении до которой содержащийся в воздухе водяной пар достигнет насыщения.
f - Относительная влажность воздуха - влажноcть воздуха, измеренная на высоте 2 м над землей.
Te - Эффективная температура - температура, которую ощущает одетый по сезону человек в тени. Характеристика душности погоды. При расчете учитывается влияние влажности воздуха и скорости ветра на теплоощущения человека.
Tes - Эффективная температура на солнце - температура, которую ощущает человек, с поправкой на солнечный нагрев. Характеристика знойности погоды. Зависит от высоты солнца над горизонтом, облачности и скорости ветра. Ночью, в пасмурную погоду, а также при ветре 12 м/с и более поправка равна нулю.
P - Атмосферное давление - приведенное к уровню моря атмосферное давление.
Po - Атмосферное давление - измеренное на уровне метеостанции атмосферное давление.
Tmin - Минимальная температура - минимум температуры воздуха на высоте 2 м над землей.
Tmax - Максимальная температура - максимум температуры воздуха на высоте 2 м над землей.
R - Количество осадков - Количество выпавших осадков за период времени, мм. При наведении курсора мыши на число - период времени, за который выпало указанное количество осадков.
R24 - Количество осадков - Количество выпавших осадков за 24 часа, мм.
S - Снежный покров - Высота снежного покрова, см. При наведении курсора мыши на число - состояние снежного покрова и степень покрытия местности в баллах.